Flag Weather past 2 weeks in Windsor, Ontario, Canada

Now
50 °F

Rain. Fog.


Feels Like: 44 °F
Forecast: 36 / 57 °F
Wind: 16 mph from Southeast

Location: Windsor Weather Station

Current Time: Nov 23, 2014 at 11:02:06 PM

Latest Report: Nov 23, 2014 at 10:00 PM


Visibility: 2 mi

Pressure: 29.41 "Hg

Humidity: 94%

Dew point: 48 °F

Location of WindsorLocation

Historic Weather in Windsor — Graph

°F

Windsor temperature yesterday

Maximum temperature yesterday: 45 °F (at 4:00 PM)
Minimum temperature yesterday: 23 °F (at 12:00 AM)
Average temperature yesterday: 35 °F

Past Weeks' High & Low Weather Summary

 TemperatureHumidityPressure
High63 °F (Nov 11, 1:00 PM)100% (Nov 16, 7:50 PM)30.50 "Hg (Nov 16, 7:50 PM)
Low12 °F (Nov 18, 4:00 AM)50% (Nov 21, 12:00 PM)29.47 "Hg (Nov 23, 9:00 PM)
Average32 °F73%30.03 "Hg
* Reported Nov 8 9:00 PM — Nov 23 9:00 PM, Windsor, Weather by CustomWeather, © 2014

Note: Actual official high and low records may vary slightly from our data, if they occured in-between our weather recording intervals... More about our weather records

Advertising

Windsor weather history for previous 24 hours

 ConditionsComfort  
Time TempWeatherWind HumidityBarometerVisibility
9:00 PM
Nov 23
50 °FRain. Fog.14 mph94%29.47 "Hg3 mi
8:00 PM52 °FOvercast.18 mph82%29.54 "Hg7 mi
7:00 PM52 °FLight rain. Overcast.12 mph77%29.58 "Hg10 mi
6:00 PM50 °FMostly cloudy.10 mph76%29.64 "Hg15 mi
5:00 PM50 °FMostly cloudy.10 mph76%29.67 "Hg12 mi
4:00 PM52 °FMostly cloudy.10 mph77%29.72 "Hg15 mi
3:00 PM52 °FMostly cloudy.12 mph82%29.75 "Hg12 mi
2:00 PM52 °FOvercast.15 mph82%29.79 "Hg12 mi
1:00 PM50 °FOvercast.13 mph82%29.85 "Hg10 mi
12:00 PM48 °FMore clouds than sun.8 mph87%29.89 "Hg8 mi
11:00 AM46 °FLight rain. More clouds than sun.12 mph93%29.93 "Hg7 mi
10:00 AM45 °FLight rain. Fog.15 mph93%29.96 "Hg5 mi
9:00 AM45 °FLight rain. Fog.12 mph93%29.96 "Hg6 mi
8:00 AM43 °FLight rain. Fog.13 mph93%29.94 "Hg5 mi
7:00 AM45 °FMostly cloudy.14 mph93%29.96 "Hg7 mi
6:00 AM45 °FLight rain. Mostly cloudy.15 mph87%29.96 "Hg8 mi
5:00 AM45 °FLight rain. Overcast.16 mph93%29.96 "Hg10 mi
4:00 AM46 °FOvercast.14 mph76%29.96 "Hg15 mi
3:00 AM45 °FPassing clouds.14 mph81%29.97 "Hg15 mi
2:00 AM45 °FOvercast.14 mph81%29.97 "Hg15 mi
1:00 AM45 °FMostly cloudy.13 mph81%29.97 "Hg12 mi
12:00 AM46 °FOvercast.14 mph82%29.96 "Hg12 mi
11:00 PM
Nov 22
45 °FOvercast.13 mph87%29.96 "Hg7 mi
Weather by CustomWeather, © 2014

See weather overviewHow to use our weather pages